Fort Lauderdale, FL

10:26 PM EDT on May 26, 2017 (GMT -0400)
Fort Lauderdale Executive

Weather History for KFXE - September, 2013

Change the Weather History Date:

Saturday, September 7, 2013

  Actual Average Record
Temperature  
Mean Temperature 82 °F -  
Max Temperature 88 °F 91 °F 96 °F (1989)
Min Temperature 75 °F 74 °F 68 °F (1951)
Cooling Degree Days 18    
Growing Degree Days 32 (Base 50)    
Moisture  
Dew Point 73 °F    
Average Humidity 77    
Maximum Humidity 90    
Minimum Humidity 55    
Precipitation  
Precipitation 0.01 in - - ()
Sea Level Pressure  
Sea Level Pressure 29.96 in    
Wind  
Wind Speed 3 mph (NNE)    
Max Wind Speed 10 mph    
Max Gust Speed 18 mph    
Visibility 10 miles    
Events Rain , Thunderstorm    
Averages and records for this station are not official NWS values.
T = Trace of Precipitation, MM = Missing Value Source: NWS Daily Summary

Daily Weather History Graph

Daily Weather History Graph

Search for Another Location

Airport or City:

Trip Planner

Search our weather history database for the weather conditions in past years. The results will help you decide how hot, cold, wet, or windy it might be!

Date:

Astronomy

Sep. 07, 2013 Rise Set
Actual Time 7:03 AM EDT 7:33 PM EDT
Civil Twilight 6:39 AM EDT 7:56 PM EDT
Nautical Twilight 6:12 AM EDT 8:23 PM EDT
Astronomical Twilight 5:45 AM EDT 8:51 PM EDT
Moon 8:57 AM EDT (9/7) 8:51 PM EDT (9/7)
Length of Visible Light 13h 16m
Length of Day
12h 30m
Waxing Crescent, 5% of the Moon is Illuminated
Sep 7
Waxing Crescent
Sep 12
First Quarter
Sep 19
Full
Sep 26
Last Quarter
Oct 4
New

Hourly Weather History & Observations

Time (EDT) Temp. Heat Index Dew Point Humidity Pressure Visibility Wind Dir Wind Speed Gust Speed Precip Events Conditions
12:53 AM 82.9 °F 90.2 °F 75.0 °F 77% 29.98 in 10.0 mi Calm Calm - N/A   Clear
1:53 AM 82.0 °F 88.6 °F 75.0 °F 79% 29.96 in 10.0 mi Calm Calm - N/A   Clear
2:53 AM 82.9 °F 90.2 °F 75.0 °F 77% 29.94 in 10.0 mi ENE 3.5 mph - N/A   Clear
3:53 AM 82.0 °F 88.6 °F 75.0 °F 79% 29.93 in 10.0 mi NNE 3.5 mph - N/A   Clear
4:53 AM 81.0 °F 86.7 °F 75.0 °F 82% 29.94 in 10.0 mi North 4.6 mph - N/A   Mostly Cloudy
5:53 AM 80.1 °F 85.1 °F 75.0 °F 85% 29.94 in 10.0 mi Calm Calm - N/A   Clear
6:53 AM 78.1 °F - 75.0 °F 90% 29.96 in 10.0 mi NNE 9.2 mph 18.4 mph 0.01 in Rain Light Rain
7:53 AM 77.0 °F - 70.0 °F 79% 29.96 in 10.0 mi ENE 5.8 mph - N/A   Mostly Cloudy
8:53 AM 79.0 °F - 71.1 °F 77% 29.99 in 10.0 mi East 4.6 mph - N/A   Mostly Cloudy
9:53 AM 81.0 °F 84.9 °F 71.1 °F 72% 29.99 in 10.0 mi ESE 3.5 mph - N/A   Mostly Cloudy
10:53 AM 82.0 °F 87.4 °F 73.0 °F 74% 29.99 in 10.0 mi Calm Calm - N/A   Clear
11:53 AM 84.0 °F 91.9 °F 75.0 °F 74% 30.00 in 10.0 mi Variable 4.6 mph - N/A   Scattered Clouds
12:53 PM 86.0 °F 93.8 °F 73.9 °F 67% 30.00 in 10.0 mi SSE 5.8 mph - N/A   Scattered Clouds
1:53 PM 87.1 °F 94.5 °F 73.0 °F 63% 29.98 in 10.0 mi Variable 4.6 mph - N/A Thunderstorm Thunderstorm
2:53 PM 88.0 °F 92.9 °F 70.0 °F 55% 29.96 in 10.0 mi East 6.9 mph - N/A Thunderstorm Thunderstorm
3:53 PM 82.9 °F 89.4 °F 73.9 °F 74% 29.95 in 10.0 mi North 9.2 mph 17.3 mph N/A Thunderstorm Thunderstorm
3:57 PM 82.4 °F 88.2 °F 73.4 °F 74% 29.94 in 10.0 mi North 10.4 mph - N/A Thunderstorm Thunderstorm
4:53 PM 78.1 °F - 72.0 °F 81% 29.92 in 10.0 mi NNE 5.8 mph - 0.00 in   Mostly Cloudy
5:53 PM 79.0 °F - 72.0 °F 79% 29.93 in 10.0 mi North 6.9 mph - N/A   Scattered Clouds
6:53 PM 79.0 °F - 73.0 °F 82% 29.93 in 10.0 mi North 4.6 mph - N/A   Clear
7:53 PM 78.1 °F - 73.0 °F 84% 29.94 in 10.0 mi NNW 3.5 mph - N/A   Scattered Clouds
8:53 PM 78.1 °F - 72.0 °F 81% 29.96 in 10.0 mi NNW 3.5 mph - N/A   Scattered Clouds
9:53 PM 77.0 °F - 72.0 °F 84% 29.98 in 10.0 mi NW 3.5 mph - N/A   Clear
10:53 PM 77.0 °F - 71.1 °F 82% 29.96 in 10.0 mi Calm Calm - N/A   Clear
11:53 PM 75.9 °F - 71.1 °F 85% 29.95 in 10.0 mi Calm Calm - N/A   Clear